Location: La Fredeussais
(48.1780°N, 1.3980°W)
Time: 09:02:53
(UTC+00:00)

STARLINK-2720 - Pass Details

Date: 30 July 2021
Orbit: 546 x 548 km, 53.1° (Epoch: 19 September)

Event Time Altitude Azimuth Distance (km) Brightness Sun altitude
Rises 19:27:01 0° 296° (WNW) 2,715 11.4 1.8°
Reaches altitude 10° 19:29:15 10° 296° (WNW) 1,820 8.8 1.4°
Maximum altitude 19:33:24 87° 209° (SSW) 553 3.7 0.8°
Drops below altitude 10° 19:37:31 10° 120° (ESE) 1,812 5.6 0.2°
Enters shadow 19:39:39 - 120° (ESE) 2,665 6.4 -0.1°
Exits shadow 20:15:17 -75° 117° (ESE) 12,886 10.4 -5.2°
